Date String (YYYY-MM-DD hh:mm:ss) UTC,Instrument flags,absolute air pressure of the measurement (hPa),sample flow rate (lpm),inlet stack bypass flow (lpm),air temperature of the measurement (°C),ambient temperature measured by the external sensor (°C),aerosol sample conditioner tube jacket temperature (°C),OPC LED temperature (°C),internal box temperature (°C),relative humidity of the measurement (%),span deviation,mass concentration of particles derived from Lorenz-Mie calculation of OPC scattering (μg/m³),mass concentration of particles derived from Lorenz-Mie calculation of OPC scattering (μg/m³),mass concentration of particles derived from Lorenz-Mie calculation of OPC scattering (μg/m³)
DateTimeUTC,F1_M11,P_M11,Q1_M11,Q2_M11,T1_M11,T2_M11,T3_M11,T4_M11,T5_M11,U1_M11,ZSPAN_M11,X2_M11,X0_M11,X1_M11
2024-03-04 07:00:00,SystemResetWarning,0820.8,4.99,000.00,018.8,018.9,000.0,027.2,020.6,14.1,0000.0,0001.26,0006.29,0000.58
2024-03-04 07:01:00,SystemResetWarning,0820.7,5.01,000.00,018.7,018.5,000.0,027.1,020.3,14.2,0000.0,0001.21,0006.63,0000.57
2024-03-04 07:02:00,SystemResetWarning,0820.7,5.01,000.00,018.6,018.1,000.0,027.1,020.0,14.2,0000.0,0001.18,0006.13,0000.56
2024-03-04 07:03:00,SystemResetWarning,0820.7,5.00,000.00,018.6,017.9,000.0,027.2,020.0,14.4,0000.0,0001.14,0005.88,0000.55
2024-03-04 07:04:00,SystemResetWarning,0820.7,5.00,000.00,018.5,017.8,000.0,027.2,020.0,14.5,0000.0,0001.04,0004.20,0000.53
2024-03-04 07:05:00,SystemResetWarning,0820.7,5.00,000.00,018.5,017.6,000.0,027.2,020.0,14.5,0000.0,0001.02,0003.73,0000.53
2024-03-04 07:06:00,SystemResetWarning,0820.7,5.00,000.00,018.4,017.5,000.0,027.2,020.0,14.6,0000.0,0001.00,0003.71,0000.53
2024-03-04 07:07:00,SystemResetWarning,0820.7,5.00,000.00,018.4,017.4,000.0,027.2,020.0,14.7,0000.0,0001.02,0003.83,0000.54
2024-03-04 07:08:00,SystemResetWarning,0820.6,5.01,000.00,018.4,017.4,000.0,027.2,020.1,14.7,0000.0,0001.02,0003.90,0000.55
2024-03-04 07:09:00,SystemResetWarning,0820.7,5.01,000.00,018.5,018.2,000.0,027.3,020.5,14.6,0000.0,0001.03,0003.99,0000.55
2024-03-04 07:10:00,SystemResetWarning,0820.7,4.99,000.00,018.8,019.0,000.0,027.3,020.9,14.4,0000.0,0001.04,0003.74,0000.56
2024-03-04 07:11:00,SystemResetWarning,0820.6,4.99,000.00,018.8,018.8,000.0,027.2,020.7,14.3,0000.0,0001.06,0003.36,0000.57
2024-03-04 07:12:00,SystemResetWarning,0820.6,5.01,000.00,018.7,018.5,000.0,027.1,020.4,14.4,0000.0,0001.10,0002.69,0000.58
2024-03-04 07:13:00,SystemResetWarning,0820.6,5.00,000.00,018.6,018.1,000.0,027.1,020.1,14.4,0000.0,0001.15,0002.94,0000.59
2024-03-04 07:14:00,SystemResetWarning,0820.5,5.00,000.00,018.5,017.9,000.0,027.1,020.0,14.5,0000.0,0001.19,0003.44,0000.60
2024-03-04 07:15:00,SystemResetWarning,0820.6,4.99,000.00,018.5,017.7,000.0,027.1,020.0,14.6,0000.0,0001.29,0003.72,0000.64
2024-03-04 07:16:00,SystemResetWarning,0820.6,4.99,000.00,018.4,017.6,000.0,027.2,020.0,14.6,0000.0,0001.42,0003.85,0000.67
2024-03-04 07:17:00,SystemResetWarning,0820.6,5.00,000.00,018.4,017.4,000.0,027.2,020.0,14.5,0000.0,0001.50,0004.03,0000.70
2024-03-04 07:18:00,SystemResetWarning,0820.5,5.01,000.00,018.4,017.4,000.0,027.2,020.1,14.5,0000.0,0001.56,0004.24,0000.71
2024-03-04 07:19:00,SystemResetWarning,0820.5,5.01,000.00,018.5,018.1,000.0,027.2,020.5,14.4,0000.0,0001.60,0004.86,0000.71
2024-03-04 07:20:00,SystemResetWarning,0820.6,4.99,000.00,018.7,018.9,000.0,027.3,020.9,14.2,0000.0,0001.66,0006.62,0000.73
2024-03-04 07:21:00,SystemResetWarning,0820.5,4.99,000.00,018.8,018.8,000.0,027.2,020.8,14.2,0000.0,0001.63,0006.85,0000.73
2024-03-04 07:22:00,SystemResetWarning,0820.7,5.01,000.00,018.7,018.5,000.0,027.1,020.4,14.2,0000.0,0001.62,0006.92,0000.72
2024-03-04 07:23:00,SystemResetWarning,0820.6,5.01,000.00,018.6,018.2,000.0,027.1,020.1,14.2,0000.0,0001.59,0006.83,0000.72
2024-03-04 07:24:00,SystemResetWarning,0820.6,5.00,000.00,018.5,017.9,000.0,027.1,020.0,14.3,0000.0,0001.56,0006.95,0000.73
2024-03-04 07:25:00,SystemResetWarning,0820.5,4.99,000.00,018.5,017.7,000.0,027.1,020.0,14.3,0000.0,0001.59,0006.69,0000.74
2024-03-04 07:26:00,SystemResetWarning,0820.5,4.99,000.00,018.4,017.5,000.0,027.2,020.0,14.3,0000.0,0001.61,0006.58,0000.75
2024-03-04 07:27:00,SystemResetWarning,0820.6,5.00,000.00,018.4,017.4,000.0,027.2,020.0,14.3,0000.0,0001.55,0006.59,0000.75
2024-03-04 07:28:00,SystemResetWarning,0820.6,5.02,000.00,018.4,017.6,000.0,027.2,020.1,14.3,0000.0,0001.49,0006.51,0000.74
2024-03-04 07:29:00,SystemResetWarning,0820.6,5.01,000.00,018.6,018.5,000.0,027.3,020.7,14.2,0000.0,0001.48,0007.57,0000.74
2024-03-04 07:30:00,SystemResetWarning,0820.8,4.99,000.00,018.9,019.3,000.0,027.3,021.2,14.0,0000.0,0001.50,0007.40,0000.75
2024-03-04 07:31:00,SystemResetWarning,0820.7,5.00,000.00,019.0,019.3,000.0,027.3,021.1,13.9,0000.0,0001.44,0005.65,0000.75
2024-03-04 07:32:00,SystemResetWarning,0820.7,4.99,000.00,018.9,019.0,000.0,027.2,020.7,14.0,0000.0,0001.44,0004.90,0000.75
2024-03-04 07:33:00,SystemResetWarning,0820.7,5.00,000.00,018.8,018.6,000.0,027.2,020.3,14.0,0000.0,0001.46,0004.86,0000.77
2024-03-04 07:34:00,SystemResetWarning,0820.8,5.01,000.00,018.7,018.2,000.0,027.1,020.0,14.1,0000.0,0001.44,0004.78,0000.77
2024-03-04 07:35:00,SystemResetWarning,0820.8,5.00,000.00,018.6,018.0,000.0,027.2,020.0,14.2,0000.0,0001.43,0004.57,0000.76
2024-03-04 07:36:00,SystemResetWarning,0820.8,5.00,000.00,018.5,017.8,000.0,027.2,020.0,14.3,0000.0,0001.35,0005.31,0000.74
2024-03-04 07:37:00,SystemResetWarning,0820.8,4.99,000.00,018.5,017.6,000.0,027.2,020.0,14.4,0000.0,0001.29,0005.42,0000.73
2024-03-04 07:38:00,SystemResetWarning,0820.9,5.00,000.00,018.5,017.5,000.0,027.2,020.0,14.4,0000.0,0001.27,0005.57,0000.71
2024-03-04 07:39:00,SystemResetWarning,0820.9,5.01,000.00,018.4,017.4,000.0,027.2,020.0,14.5,0000.0,0001.27,0005.72,0000.70
2024-03-04 07:40:00,SystemResetWarning,0820.9,5.00,000.00,018.4,017.3,000.0,027.2,020.0,14.5,0000.0,0001.28,0005.82,0000.69
2024-03-04 07:41:00,SystemResetWarning,0820.9,5.01,000.00,018.4,017.3,000.0,027.2,020.1,14.6,0000.0,0001.24,0006.62,0000.67
2024-03-04 07:42:00,SystemResetWarning,0820.8,5.01,000.00,018.5,018.1,000.0,027.3,020.5,14.5,0000.0,0001.18,0007.03,0000.65
2024-03-04 07:43:00,SystemResetWarning,0820.8,4.99,000.00,018.7,018.9,000.0,027.3,020.9,14.4,0000.0,0001.22,0007.49,0000.64
2024-03-04 07:44:00,SystemResetWarning,0820.8,4.99,000.00,018.8,018.8,000.0,027.2,020.7,14.3,0000.0,0001.26,0007.93,0000.63
2024-03-04 07:45:00,SystemResetWarning,0820.8,5.00,000.00,018.7,018.5,000.0,027.1,020.3,14.4,0000.0,0001.24,0007.97,0000.62
2024-03-04 07:46:00,SystemResetWarning,0820.8,5.00,000.00,018.6,018.2,000.0,027.1,020.0,14.5,0000.0,0001.25,0008.00,0000.60
2024-03-04 07:47:00,SystemResetWarning,0820.8,5.01,000.00,018.5,018.0,000.0,027.1,020.0,14.6,0000.0,0001.25,0008.96,0000.60
2024-03-04 07:48:00,SystemResetWarning,0820.8,5.00,000.00,018.5,017.8,000.0,027.2,020.0,14.7,0000.0,0001.26,0008.69,0000.60
2024-03-04 07:49:00,SystemResetWarning,0820.8,4.98,000.00,018.4,017.6,000.0,027.2,020.0,14.8,0000.0,0001.22,0008.56,0000.59
2024-03-04 07:50:00,SystemResetWarning,0820.8,5.00,000.00,018.4,017.5,000.0,027.2,020.0,14.9,0000.0,0001.15,0008.25,0000.58
2024-03-04 07:51:00,SystemResetWarning,0820.9,5.00,000.00,018.4,017.4,000.0,027.2,020.0,14.9,0000.0,0001.11,0007.95,0000.58
2024-03-04 07:52:00,SystemResetWarning,0821.0,5.02,000.00,018.4,017.6,000.0,027.2,020.1,14.9,0000.0,0001.08,0007.31,0000.59
2024-03-04 07:53:00,SystemResetWarning,0820.9,5.00,000.00,018.6,018.5,000.0,027.3,020.7,14.7,0000.0,0001.10,0006.99,0000.59
2024-03-04 07:54:00,SystemResetWarning,0820.8,5.00,000.00,018.8,019.0,000.0,027.3,020.9,14.6,0000.0,0001.08,0007.10,0000.59
2024-03-04 07:55:00,SystemResetWarning,0820.8,4.99,000.00,018.8,018.8,000.0,027.2,020.6,14.5,0000.0,0001.05,0007.47,0000.59
2024-03-04 07:56:00,SystemResetWarning,0820.8,4.99,000.00,018.7,018.5,000.0,027.1,020.3,14.6,0000.0,0001.05,0007.56,0000.58
2024-03-04 07:57:00,SystemResetWarning,0820.8,5.01,000.00,018.6,018.1,000.0,027.1,020.0,14.7,0000.0,0001.09,0007.70,0000.59
2024-03-04 07:58:00,SystemResetWarning,0820.9,5.01,000.00,018.5,017.9,000.0,027.1,020.0,14.8,0000.0,0001.07,0005.81,0000.59
2024-03-04 07:59:00,SystemResetWarning,0820.9,4.98,000.00,018.5,017.7,000.0,027.1,020.0,14.9,0000.0,0001.06,0005.81,0000.58
